| time (UTC) | temp F | wind direction | speed MPH | gust MPH | rain 1hr in | rain 24hr in | rain mn in | humidity % | barometer mb |
| 20260504002637 | 50 | 0.0 | 0.0 | 0.00 | 0.00 | 0.00 | 43 | 1016.2 | |
| 20260504002037 | 50 | 0.0 | 0.0 | 0.00 | 0.00 | 0.00 | 43 | 1016.2 | |
| 20260504001437 | 50 | 0.0 | 0.0 | 0.00 | 0.00 | 0.00 | 43 | 1016.2 | |
| 20260504000837 | 50 | 0.0 | 0.0 | 0.00 | 0.00 | 0.00 | 43 | 1016.2 | |
| 20260504000237 | 50 | 0.0 | 0.0 | 0.00 | 0.00 | 0.00 | 43 | 1016.2 | |
| 20260503235637 | 51 | 0.0 | 0.0 | 0.00 | 0.00 | 0.00 | 43 | 1016.3 | |
| 20260503235037 | 51 | 0.0 | 0.0 | 0.00 | 0.00 | 0.00 | 43 | 1016.3 | |
| 20260503234437 | 51 | 0.0 | 0.0 | 0.00 | 0.00 | 0.00 | 43 | 1016.3 | |
| 20260503233837 | 51 | 0.0 | 0.0 | 0.00 | 0.00 | 0.00 | 43 | 1016.3 | |
| 20260503233237 | 51 | 0.0 | 0.0 | 0.00 | 0.00 | 0.00 | 43 | 1016.3 | |
| 20260503232637 | 51 | 0.0 | 0.0 | 0.00 | 0.00 | 0.00 | 43 | 1016.3 | |
| 20260503232037 | 51 | 0.0 | 0.0 | 0.00 | 0.00 | 0.00 | 42 | 1016.4 | |
| 20260503231437 | 51 | 0.0 | 0.0 | 0.00 | 0.00 | 0.00 | 42 | 1016.4 | |
| 20260503230837 | 51 | 0.0 | 0.0 | 0.00 | 0.00 | 0.00 | 42 | 1016.5 | |
| 20260503230237 | 51 | 0.0 | 0.0 | 0.00 | 0.00 | 0.00 | 42 | 1016.5 | |
| 20260503225637 | 51 | 0.0 | 0.0 | 0.00 | 0.00 | 0.00 | 41 | 1016.5 | |
| 20260503225037 | 51 | 0.0 | 0.0 | 0.00 | 0.00 | 0.00 | 41 | 1016.5 | |
| 20260503224437 | 51 | 0.0 | 0.0 | 0.00 | 0.00 | 0.00 | 41 | 1016.5 | |
| 20260503223837 | 52 | 0.0 | 0.0 | 0.00 | 0.00 | 0.00 | 41 | 1016.5 | |
| 20260503223237 | 52 | 0.0 | 0.0 | 0.00 | 0.00 | 0.00 | 40 | 1016.6 | |
| 20260503222637 | 52 | 0.0 | 0.0 | 0.00 | 0.00 | 0.00 | 40 | 1016.6 | |
| 20260503222037 | 52 | 0.0 | 0.0 | 0.00 | 0.00 | 0.00 | 40 | 1016.6 | |
| 20260503221437 | 52 | 0.0 | 0.0 | 0.00 | 0.00 | 0.00 | 40 | 1016.7 | |
| 20260503220837 | 52 | 0.0 | 0.0 | 0.00 | 0.00 | 0.00 | 40 | 1016.7 | |
| 20260503220237 | 52 | 0.0 | 0.0 | 0.00 | 0.00 | 0.00 | 40 | 1016.7 | |
| 20260503215637 | 52 | 0.0 | 0.0 | 0.00 | 0.00 | 0.00 | 40 | 1016.8 | |
| 20260503215037 | 52 | 0.0 | 0.0 | 0.00 | 0.00 | 0.00 | 39 | 1016.8 | |
| 20260503214437 | 53 | 0.0 | 0.0 | 0.00 | 0.00 | 0.00 | 39 | 1016.9 | |
| 20260503213837 | 53 | 0.0 | 0.0 | 0.00 | 0.00 | 0.00 | 39 | 1017.0 | |
| 20260503213237 | 53 | 0.0 | 0.0 | 0.00 | 0.00 | 0.00 | 39 | 1017.0 | |
| 20260503212637 | 53 | 0.0 | 0.0 | 0.00 | 0.00 | 0.00 | 38 | 1017.0 | |
| 20260503212037 | 53 | 0.0 | 0.0 | 0.00 | 0.00 | 0.00 | 38 | 1017.0 | |
| 20260503211437 | 53 | 0.0 | 0.0 | 0.00 | 0.00 | 0.00 | 38 | 1017.1 | |
| 20260503210837 | 53 | 0.0 | 0.0 | 0.00 | 0.00 | 0.00 | 38 | 1017.2 | |
| 20260503210237 | 53 | 0.0 | 0.0 | 0.00 | 0.00 | 0.00 | 38 | 1017.2 | |
| 20260503205637 | 54 | 0.0 | 0.0 | 0.00 | 0.00 | 0.00 | 37 | 1017.3 | |
| 20260503205037 | 54 | 0.0 | 0.0 | 0.00 | 0.00 | 0.00 | 37 | 1017.3 | |
| 20260503204437 | 54 | 0.0 | 0.0 | 0.00 | 0.00 | 0.00 | 37 | 1017.3 | |
| 20260503203837 | 54 | 0.0 | 0.0 | 0.00 | 0.00 | 0.00 | 37 | 1017.4 | |
| 20260503203237 | 54 | 0.0 | 0.0 | 0.00 | 0.00 | 0.00 | 36 | 1017.4 | |
| 20260503202637 | 54 | 0.0 | 0.0 | 0.00 | 0.00 | 0.00 | 36 | 1017.4 | |
| 20260503202037 | 54 | 0.0 | 0.0 | 0.00 | 0.00 | 0.00 | 36 | 1017.4 | |
| 20260503201437 | 55 | 0.0 | 0.0 | 0.00 | 0.00 | 0.00 | 36 | 1017.5 | |
| 20260503200837 | 55 | 0.0 | 0.0 | 0.00 | 0.00 | 0.00 | 35 | 1017.5 | |
| 20260503200237 | 55 | 0.0 | 0.0 | 0.00 | 0.00 | 0.00 | 35 | 1017.6 | |
| 20260503195637 | 55 | 0.0 | 0.0 | 0.00 | 0.00 | 0.00 | 35 | 1017.7 | |
| 20260503195037 | 55 | 0.0 | 0.0 | 0.00 | 0.00 | 0.00 | 34 | 1017.7 | |
| 20260503194437 | 55 | 0.0 | 0.0 | 0.00 | 0.00 | 0.00 | 34 | 1017.7 | |
| 20260503193837 | 56 | 0.0 | 0.0 | 0.00 | 0.00 | 0.00 | 34 | 1017.7 | |
| 20260503193237 | 56 | 0.0 | 0.0 | 0.00 | 0.00 | 0.00 | 33 | 1017.7 | |
| 20260503192637 | 56 | 0.0 | 0.0 | 0.00 | 0.00 | 0.00 | 33 | 1017.8 | |
| 20260503192037 | 56 | 0.0 | 0.0 | 0.00 | 0.00 | 0.00 | 33 | 1017.8 | |
| 20260503191437 | 56 | 0.0 | 0.0 | 0.00 | 0.00 | 0.00 | 32 | 1017.8 | |
| 20260503190837 | 56 | 0.0 | 0.0 | 0.00 | 0.00 | 0.00 | 32 | 1017.8 | |
| 20260503190237 | 56 | 0.0 | 0.0 | 0.00 | 0.00 | 0.00 | 32 | 1017.8 | |
| 20260503185637 | 56 | 0.0 | 0.0 | 0.00 | 0.00 | 0.00 | 32 | 1017.7 | |
| 20260503185037 | 56 | 0.0 | 0.0 | 0.00 | 0.00 | 0.00 | 32 | 1017.7 | |
| 20260503184437 | 56 | 0.0 | 0.0 | 0.00 | 0.00 | 0.00 | 32 | 1017.8 | |
| 20260503183837 | 56 | 0.0 | 0.0 | 0.00 | 0.00 | 0.00 | 31 | 1017.8 | |
| 20260503183237 | 56 | 0.0 | 0.0 | 0.00 | 0.00 | 0.00 | 31 | 1017.7 | |
| 20260503182637 | 56 | 0.0 | 0.0 | 0.00 | 0.00 | 0.00 | 31 | 1017.7 | |
| 20260503182037 | 57 | 0.0 | 0.0 | 0.00 | 0.00 | 0.00 | 31 | 1017.7 | |
| 20260503181437 | 57 | 0.0 | 0.0 | 0.00 | 0.00 | 0.00 | 31 | 1017.7 | |
| 20260503180837 | 57 | 0.0 | 0.0 | 0.00 | 0.00 | 0.00 | 31 | 1017.6 | |
| 20260503180237 | 57 | 0.0 | 0.0 | 0.00 | 0.00 | 0.00 | 30 | 1017.6 | |
| 20260503175637 | 57 | 0.0 | 0.0 | 0.00 | 0.00 | 0.00 | 30 | 1017.6 | |
| 20260503175037 | 57 | 0.0 | 0.0 | 0.00 | 0.00 | 0.00 | 30 | 1017.6 | |
| 20260503174437 | 58 | 0.0 | 0.0 | 0.00 | 0.00 | 0.00 | 29 | 1017.5 | |
| 20260503173837 | 58 | 0.0 | 0.0 | 0.00 | 0.00 | 0.00 | 29 | 1017.5 | |
| 20260503173237 | 58 | 0.0 | 0.0 | 0.00 | 0.00 | 0.00 | 29 | 1017.5 | |
| 20260503172637 | 58 | 0.0 | 0.0 | 0.00 | 0.00 | 0.00 | 29 | 1017.5 | |
| 20260503172037 | 58 | 0.0 | 0.0 | 0.00 | 0.00 | 0.00 | 28 | 1017.5 | |
| 20260503171437 | 59 | 0.0 | 0.0 | 0.00 | 0.00 | 0.00 | 28 | 1017.5 | |
| 20260503170837 | 59 | 0.0 | 0.0 | 0.00 | 0.00 | 0.00 | 28 | 1017.5 | |
| 20260503170237 | 59 | 0.0 | 0.0 | 0.00 | 0.00 | 0.00 | 28 | 1017.5 | |
| 20260503150836 | 62 | 0.0 | 0.0 | 0.00 | 0.00 | 0.00 | 22 | 1017.5 | |
| 20260503150237 | 63 | 0.0 | 0.0 | 0.00 | 0.00 | 0.00 | 21 | 1017.5 | |
| 20260503140236 | 73 | 0.0 | 0.0 | 0.00 | 0.00 | 0.00 | 19 | 1017.9 | |
| 20260503130836 | 70 | 0.0 | 0.0 | 0.00 | 0.00 | 0.00 | 21 | 1018.8 | |
| 20260503130236 | 72 | 0.0 | 0.0 | 0.00 | 0.00 | 0.00 | 22 | 1018.8 | |
| 20260503110236 | 67 | 0.0 | 0.0 | 0.00 | 0.00 | 0.00 | 25 | 1020.2 | |
| 20260503100236 | 64 | 0.0 | 0.0 | 0.00 | 0.00 | 0.00 | 24 | 1020.9 | |
| 20260503090236 | 65 | 0.0 | 0.0 | 0.00 | 0.00 | 0.00 | 30 | 1021.2 | |
| 20260503081436 | 59 | 0.0 | 0.0 | 0.00 | 0.00 | 0.00 | 33 | 1021.2 | |
| 20260503080836 | 59 | 0.0 | 0.0 | 0.00 | 0.00 | 0.00 | 34 | 1021.2 | |
| 20260503080236 | 58 | 0.0 | 0.0 | 0.00 | 0.00 | 0.00 | 34 | 1021.3 | |
| 20260503072636 | 56 | 0.0 | 0.0 | 0.00 | 0.00 | 0.00 | 37 | 1021.3 | |
| 20260503072036 | 56 | 0.0 | 0.0 | 0.00 | 0.00 | 0.00 | 38 | 1021.3 | |
| 20260503071436 | 56 | 0.0 | 0.0 | 0.00 | 0.00 | 0.00 | 39 | 1021.2 | |
| 20260503070836 | 55 | 0.0 | 0.0 | 0.00 | 0.00 | 0.00 | 39 | 1021.2 | |
| 20260503070236 | 55 | 0.0 | 0.0 | 0.00 | 0.00 | 0.00 | 40 | 1021.2 | |
| 20260503060236 | 51 | 0.0 | 0.0 | 0.00 | 0.00 | 0.00 | 50 | 1021.3 | |
| 20260503055036 | 50 | 0.0 | 0.0 | 0.00 | 0.00 | 0.00 | 52 | 1021.3 | |
| 20260503054436 | 50 | 0.0 | 0.0 | 0.00 | 0.00 | 0.00 | 53 | 1021.3 | |
| 20260503053836 | 49 | 0.0 | 0.0 | 0.00 | 0.00 | 0.00 | 54 | 1021.3 | |
| 20260503053236 | 48 | 0.0 | 0.0 | 0.00 | 0.00 | 0.00 | 55 | 1021.3 | |
| 20260503052636 | 48 | 0.0 | 0.0 | 0.00 | 0.00 | 0.00 | 56 | 1021.2 | |
| 20260503052036 | 47 | 0.0 | 0.0 | 0.00 | 0.00 | 0.00 | 57 | 1021.2 | |
| 20260503051436 | 47 | 0.0 | 0.0 | 0.00 | 0.00 | 0.00 | 58 | 1021.2 | |
| 20260503050836 | 46 | 0.0 | 0.0 | 0.00 | 0.00 | 0.00 | 58 | 1021.1 | |
| 20260503050236 | 45 | 0.0 | 0.0 | 0.00 | 0.00 | 0.00 | 59 | 1021.1 | |
| 20260503045636 | 45 | 0.0 | 0.0 | 0.00 | 0.00 | 0.00 | 60 | 1021.0 | |
| 20260503045036 | 44 | 0.0 | 0.0 | 0.00 | 0.00 | 0.00 | 60 | 1021.0 | |
| 20260503044436 | 44 | 0.0 | 0.0 | 0.00 | 0.00 | 0.00 | 61 | 1020.9 | |
| 20260503043836 | 43 | 0.0 | 0.0 | 0.00 | 0.00 | 0.00 | 61 | 1020.9 | |
| 20260503043236 | 43 | 0.0 | 0.0 | 0.00 | 0.00 | 0.00 | 62 | 1020.9 | |
| 20260503042636 | 43 | 0.0 | 0.0 | 0.00 | 0.00 | 0.00 | 62 | 1020.9 | |
| 20260503042036 | 42 | 0.0 | 0.0 | 0.00 | 0.00 | 0.00 | 62 | 1020.9 | |
| 20260503041436 | 42 | 0.0 | 0.0 | 0.00 | 0.00 | 0.00 | 62 | 1020.8 | |
| 20260503040836 | 42 | 0.0 | 0.0 | 0.00 | 0.00 | 0.00 | 62 | 1020.8 | |
| 20260503040236 | 42 | 0.0 | 0.0 | 0.00 | 0.00 | 0.00 | 62 | 1020.7 | |
| 20260503035636 | 41 | 0.0 | 0.0 | 0.00 | 0.00 | 0.00 | 62 | 1020.7 | |
| 20260503035036 | 41 | 0.0 | 0.0 | 0.00 | 0.00 | 0.00 | 62 | 1020.6 | |
| 20260503034436 | 41 | 0.0 | 0.0 | 0.00 | 0.00 | 0.00 | 62 | 1020.6 | |
| 20260503033836 | 41 | 0.0 | 0.0 | 0.00 | 0.00 | 0.00 | 62 | 1020.5 | |
| 20260503033236 | 41 | 0.0 | 0.0 | 0.00 | 0.00 | 0.00 | 62 | 1020.5 | |
| 20260503032636 | 41 | 0.0 | 0.0 | 0.00 | 0.00 | 0.00 | 62 | 1020.5 | |
| 20260503032036 | 41 | 0.0 | 0.0 | 0.00 | 0.00 | 0.00 | 62 | 1020.4 | |
| 20260503031436 | 42 | 0.0 | 0.0 | 0.00 | 0.00 | 0.00 | 62 | 1020.4 | |
| 20260503030836 | 42 | 0.0 | 0.0 | 0.00 | 0.00 | 0.00 | 62 | 1020.4 | |
| 20260503030236 | 41 | 0.0 | 0.0 | 0.00 | 0.00 | 0.00 | 62 | 1020.3 | |
| 20260503025636 | 42 | 0.0 | 0.0 | 0.00 | 0.00 | 0.00 | 62 | 1020.3 | |
| 20260503025036 | 42 | 0.0 | 0.0 | 0.00 | 0.00 | 0.00 | 62 | 1020.2 | |
| 20260503024436 | 42 | 0.0 | 0.0 | 0.00 | 0.00 | 0.00 | 62 | 1020.2 | |
| 20260503023836 | 42 | 0.0 | 0.0 | 0.00 | 0.00 | 0.00 | 62 | 1020.2 | |
| 20260503023236 | 42 | 0.0 | 0.0 | 0.00 | 0.00 | 0.00 | 62 | 1020.1 | |
| 20260503022636 | 42 | 0.0 | 0.0 | 0.00 | 0.00 | 0.00 | 62 | 1020.1 | |
| 20260503022036 | 42 | 0.0 | 0.0 | 0.00 | 0.00 | 0.00 | 62 | 1020.0 | |
| 20260503021436 | 42 | 0.0 | 0.0 | 0.00 | 0.00 | 0.00 | 63 | 1020.1 | |
| 20260503020836 | 42 | 0.0 | 0.0 | 0.00 | 0.00 | 0.00 | 63 | 1020.1 | |
| 20260503020236 | 42 | 0.0 | 0.0 | 0.00 | 0.00 | 0.00 | 63 | 1020.1 | |
| 20260503015636 | 42 | 0.0 | 0.0 | 0.00 | 0.00 | 0.00 | 63 | 1020.1 | |
| 20260503015036 | 42 | 0.0 | 0.0 | 0.00 | 0.00 | 0.00 | 63 | 1020.1 | |
| 20260503014436 | 42 | 0.0 | 0.0 | 0.00 | 0.00 | 0.00 | 63 | 1020.1 | |
| 20260503013836 | 42 | 0.0 | 0.0 | 0.00 | 0.00 | 0.00 | 63 | 1020.2 | |
| 20260503013236 | 42 | 0.0 | 0.0 | 0.00 | 0.00 | 0.00 | 63 | 1020.2 | |
| 20260503012636 | 42 | 0.0 | 0.0 | 0.00 | 0.00 | 0.00 | 63 | 1020.2 | |
| 20260503012036 | 42 | 0.0 | 0.0 | 0.00 | 0.00 | 0.00 | 63 | 1020.1 | |
| 20260503011436 | 42 | 0.0 | 0.0 | 0.00 | 0.00 | 0.00 | 64 | 1020.2 | |
| 20260503010836 | 43 | 0.0 | 0.0 | 0.00 | 0.00 | 0.00 | 64 | 1020.2 | |
| 20260503010236 | 43 | 0.0 | 0.0 | 0.00 | 0.00 | 0.00 | 64 | 1020.3 | |
| 20260503005636 | 43 | 0.0 | 0.0 | 0.00 | 0.00 | 0.00 | 64 | 1020.3 | |
| 20260503005036 | 43 | 0.0 | 0.0 | 0.00 | 0.00 | 0.00 | 64 | 1020.2 | |
| 20260503004436 | 43 | 0.0 | 0.0 | 0.00 | 0.00 | 0.00 | 65 | 1020.3 | |
| 20260503003836 | 43 | 0.0 | 0.0 | 0.00 | 0.00 | 0.00 | 65 | 1020.3 | |
| 20260503003236 | 43 | 0.0 | 0.0 | 0.00 | 0.00 | 0.00 | 65 | 1020.3 |